Regional Weather Roundup
Issued by NWS Albany, NY

Home | Current Version | Previous Version | Text Only | Print | Product List | Glossary On
Versions: 1 2 3 4 5 6 7 8 9 10 11 12 13 14 15 16 17 18 19 20 21 22 23 24 25 26 27 28 29 30 31 32 33 34 35 36 37 38 39 40 41 42 43 44 45 46 47 48 49 50
000
ASUS41 KALY 252210
RWRALY

NEW YORK STATE HOURLY WEATHER ROUNDUP
NATIONAL WEATHER SERVICE ALBANY NY
600 PM EDT WED APR 25 2018

NOTE: "FAIR" INDICATES FEW OR NO CLOUDS BELOW 12,000 FEET WITH NO
SIGNIFICANT WEATHER AND/OR NO OBSTRUCTIONS TO VISIBILITY.

NYZ032-033-038>043-046>054-057>066-NYZ062>081-082-084-252300-
EAST


CITY           SKY/WX    TMP DP  RH WIND       PRES   REMARKS
ALBANY         DRIZZLE   57  53  86 NW6       29.71F FOG
GLENS FALLS    CLOUDY    54  52  93 N7        29.72F
POUGHKEEPSIE   CLOUDY    59  55  87 E7        29.67F FOG
NEWBURGH       CLOUDY    59  59 100 E6        29.69F FOG
MONTGOMERY     LGT RAIN  57  56  96 N6        29.67S FOG
WHITE PLAINS   FOG       56  56 100 E10G21    29.68F VSB 1/4
ISLIP          FOG       56  56 100 S7        29.70F VSB 1/8
NEW YORK CITY  FOG       53  51  93 NE9       29.68S VSB 1
CENTRAL PARK   CLOUDY    58  56  93 E3        29.70S FOG
$$

NYZ005>009-017-018-044>046-055-056-252300-
CENTRAL


CITY           SKY/WX    TMP DP  RH WIND       PRES   REMARKS
FULTON         LGT RAIN  53  52  96 CALM      29.71F FOG
SYRACUSE       LGT RAIN  53  53 100 N3        29.71F
ROME           LGT RAIN  53  52  96 CALM      29.73F FOG
ELMIRA         LGT RAIN  59  55  87 SW3       29.71S
BINGHAMTON     LGT RAIN  53  52  96 W5        29.70S FOG
MONTICELLO     LGT RAIN  54  53  97 E5        29.71S FOG
$$

NYZ026>034-041>043-087-252300-
NORTH


CITY           SKY/WX    TMP DP  RH WIND       PRES   REMARKS
WATERTOWN      LGT RAIN  54  54 100 CALM      29.71S FOG
FORT DRUM      NOT AVBL
OGDENSBURG     RAIN      55  54  95 CALM      29.71F
MASSENA        LGT RAIN  54  54 100 NE10      29.74F
SARANAC LAKE   LGT RAIN  49  49 100 E6        29.72F
PLATTSBURGH    LGT RAIN  52  51  97 MISG      29.77F FOG
$$

NYZ001>004-010>016-019>021-085-252300-
WEST


CITY           SKY/WX    TMP DP  RH WIND       PRES   REMARKS
NIAGARA FALLS  LGT RAIN  51  48  89 NW7       29.76S FOG
BUFFALO        LGT RAIN  47  47 100 SW10      29.76S FOG
DUNKIRK        LGT RAIN  45  44  97 SW16      29.80S FOG
JAMESTOWN      LGT RAIN  46  45  93 W17G23    29.79S FOG
WELLSVILLE     LGT RAIN  51  50  96 NW8       29.75S
ROCHESTER      CLOUDY    54  52  93 NW8       29.73S
PENN YAN       LGT RAIN  54  52  93 W5        29.72S FOG
$$

             KEY
       WCI = WIND CHILL INDEX
       VSB = VISIBILITY
       HX  = HEAT INDEX
$$



USA.gov is the U.S. government's official web portal to all federal, state and local government web resources and services.